Tracking 19644 objects as of 24-Apr-2019
HD Live streaming from Space Station
objects crossing your sky now

CZ-4 DEB

Track CZ-4 DEB now!
10-day predictions


NORAD ID: 35327
Int'l Code: 1999-057SF
Perigee: 673.4 km
Apogee: 804.5 km
Inclination: 98.7 °
Period: 99.4 minutes
Semi major axis: 7109 km
RCS: 0.0078 m2 (small)
Launch date: October 14, 1999
Source: People's Republic of China (PRC)
Launch site: Taiyaun Space Center, China (TSC)

Note: This is SATELLITE DEBRIS
aabbcc
Your satellite tracking list
Your tracking list is empty




NASA's NSSDC Master Catalog

Two Line Element Set (TLE):
1 35327U 99057SF  19113.18325252 +.00000283 +00000-0 +84793-4 0  9991
2 35327 098.6585 106.6963 0092216 156.1738 204.3764 14.48125011334154
Source of the keplerian elements: AFSPC